Weather WX

World > North America > United States > Pennsylvania

Cumbola, Pennsylvania Regional Weather

Lat: 40.71N, Lon: 76.14W
Wx Zone: PAZ058
Warning FLW WEATHER ALERT - FLASH FLOOD WATCH (More Info. Click Here) Warning
Feedback

Cumbola, PA Regional Weather

Expires:201906171100;;207968
ASUS41 KOKX 171013
RWROKX

Regional Weather Roundup
National Weather Service New York NY
600 AM EDT MON JUN 17 2019

Note: "FAIR" indicates few or no clouds below 12,000 feet with no
significant weather and/or obstructions to visibility.


PAZ047>061-062-071-171100-
Eastern Pennsylvania
  
CITY           SKY/WX    TMP DP  RH WIND       PRES   REMARKS
Philadelphia   MOCLDY    69  68  96 N3        29.90                   
Allentown      FAIR      67  64  90 SW5       29.95R                  
Scranton       CLOUDY    63  61  93 CALM      29.98R                  
$$


SKY/WX - Weather  TMP - Temperature  DP - Dew Point  RH - Relative Humidity
WIND - Wind Direction/Speed PRES - Barometric Pressure VSB - Visibility
WCI - Wind Chill Index E13G22 Wind - East Wind 13 mph/Gusts of 22 mph